STARLINK-30862, 59032

Orbit data source: Space-Track

STARLINK-30862, 59032 is a payload satellite owned by SpaceX/Seattle (US) in LEO that was launched on Sun, 25 Feb 2024 UTC via an FALCON 9 launch vehicle from the Air Force Eastern Test Range (AFETR). Payload-class satellites include a variety of spacecraft equipped with specific instruments for various scientific and technological missions. These include communications satellites like Starlink; space stations such as the ISS; scientific satellites like the Hubble; Earth observation satellites from companies like Planet Labs, Umbra, and HawkEye 360; GPS; miniature CubeSats for education and research; and military/defense satellites.

Loading next visibility...
Identifier
59032, 2024-038K
Orbit
LEO
Country
Flag of USUS
Related business
Manufacturer
SpaceX/Seattle
Mission
Operational Commercial Communications
Bus & Motor
STARLINK V2M, Unknown motor
Mass
730 kg wet, ~700 kg dry
Launch date (UTC)
2024-02-25 (2 years ago)
Launch vehicle
FALCON 9
Launch site
Air Force Eastern Test Range (AFETR)
Object type
Payload
Rocket body
Debris
Shape & HBR
Box + 2 Pan, 17.7 m
Radar Cross Section
33.884 m², Large (>1 m²)

Expand to show TLE details & history
Last TLE update: 2 days ago

TLE from 2 days ago
0 STARLINK-30862
1 59032U 24038K   26171.01684417  .00000389  00000-0  23677-4 0  9993
2 59032  43.0038 158.2898 0001519 283.5867  76.4816 15.27578676130421
Epoch: 2026-06-20T00:24Z
TLE epoch observation values (Epoch: 2026-06-20T00:24:15.336Z)
Latitude
0.00003°
Longitude
-116.01159°
Altitude
482.585 km
Speed
7.626 km/s
True Right ascension
10h 33m 09s
True Declination
0° 00' 00"
Sunlit
Object was in daylight at epoch
Visualization orbit readout
Latitude
Unknown
Longitude
Unknown
Altitude
Unknown
Speed
Unknown
Apparent Right ascension
Unknown
Apparent Declination
Unknown
Sunlit
N/A
Visualization observer readout
Local Sidereal Time
21:51:55
Azimuth
Unknown
Elevation
Unknown
Doppler factor
Unknown
Orbital elements
Apogee altitude
486.04 km
Perigee altitude
483.955 km
Semi-major axis
6,863.135 km
Eccentricity
0.00015
Inclination
43.0038°
RAAN
158.2898°
Arg. of periapsis
283.5867°
True anomaly
76.49852°
Mean anomaly
76.4816°
Eccentric anomaly
76.49006°
Mean motion
3.81733 °/min
Orbital period
94.31 mins
BSTAR
0.000023677
Loading maneuver chart data...
Computing Atmospheric mass density...
Loading historical data...
Loading historical data...
Loading historical data...
Loading historical data...
Loading historical data...
Loading historical data...
Loading historical data...

Documentation

Showing up to 5 results
|